RH
4 4 6 5 4 3 6 17 25 41 45 48 75 86 87 86 84 80 71 65 57 60 62 67 73 78 93 97 99 100 99 99 100 100 95 87 87 94 99 100 89 75 68 61 54 50 47 45 43 41 40 38 36 35 31 29 27 26 25 25 24 24 23 22 21 20 20 20 19 18 18 17 16 16 15 15 15 15 16 16 16 17 18 20 21 22 24 26 27 28 28 27 26 26 26 27 28
5 5 7 9 4 5 13 21 34 57 64 57 69 81 84 82 86 87 75 64 58 64 66 73 80 80 92 98 96 97 99 100 100 100 97 96 93 96 100 98 85 70 63 57 53 51 49 47 46 44 42 41 39 37 35 34 32 31 31 31 31 30 30 28 26 26 25 24 23 22 21 20 19 19 17 16 15 15 15 14 15 14 14 15 16 17 17 19 20 21 22 22 22 22 22 22 23
5 4 12 20 8 14 29 21 36 68 73 72 78 84 89 84 84 87 75 63 63 67 71 82 87 85 90 91 86 88 95 97 95 94 95 100 100 99 97 88 78 68 61 59 60 58 55 53 50 48 45 42 40 39 38 38 37 36 35 34 33 33 32 30 30 28 27 26 25 24 23 22 22 21 20 19 18 17 16 16 15 14 14 14 14 14 15 15 16 16 17 18 19 19 19 18 19
5 6 17 34 29 31 43 29 40 72 77 81 89 94 97 90 88 87 76 69 72 71 77 90 92 94 92 86 82 79 84 86 85 84 86 92 92 90 83 75 70 69 68 67 66 61 60 58 54 50 46 44 43 42 41 40 39 38 36 35 33 32 31 30 29 27 26 26 25 24 23 22 21 21 20 20 20 19 18 18 17 16 16 15 14 14 14 14 14 15 15 16 16 16 16 16 16
5 8 18 35 54 59 56 42 42 65 79 86 88 97 98 91 91 90 82 74 76 79 84 93 96 101 96 89 87 80 80 82 83 80 79 81 81 80 76 73 73 76 76 71 67 63 62 59 55 50 46 44 44 44 43 42 41 38 36 34 32 30 29 27 26 26 25 24 24 23 23 22 21 20 20 20 20 20 20 19 19 18 17 17 16 15 15 15 15 14 14 15 14 15 15 15 14
7 11 35 41 59 76 67 50 48 66 80 85 85 93 96 91 91 89 88 81 81 86 87 93 98 100 94 92 93 86 84 86 89 87 85 85 86 86 85 85 83 81 76 70 68 65 62 58 54 49 45 44 45 45 45 44 41 38 35 33 31 29 27 25 24 24 24 23 22 22 21 21 21 21 21 21 20 21 20 20 20 20 19 18 17 16 16 16 16 16 15 14 14 14 13 13 14
11 14 58 66 61 76 76 53 48 71 80 84 88 89 92 93 93 87 86 87 87 87 86 93 100 99 92 93 94 89 87 88 94 95 93 93 91 90 90 90 86 79 72 69 69 65 60 57 52 47 46 45 45 46 46 45 42 39 34 31 30 28 25 24 23 22 23 23 22 22 21 21 21 21 22 22 21 22 22 22 21 21 21 19 19 18 17 17 17 17 17 17 16 15 14 14 13
16 26 69 84 74 73 78 66 49 63 75 84 91 90 94 95 93 89 86 86 85 87 89 90 98 100 96 96 93 92 94 93 97 99 98 96 92 89 88 89 86 76 69 68 68 64 60 58 53 49 47 46 46 45 47 47 44 40 35 32 29 26 24 23 22 22 23 23 23 23 22 21 22 22 23 23 23 24 24 25 24 24 23 22 21 21 20 20 20 19 19 19 18 17 16 16 16
24 49 84 94 87 70 65 68 59 62 68 76 86 91 98 97 94 95 87 80 78 81 84 83 91 95 96 99 97 98 99 98 100 100 99 95 91 90 90 88 82 74 69 68 66 63 59 58 55 51 49 47 46 47 49 49 46 41 37 33 28 25 23 22 22 22 22 23 23 23 23 23 23 23 23 24 24 25 26 27 27 28 28 27 26 24 24 24 23 24 24 24 23 22 20 20 21
48 75 95 96 92 78 61 55 54 64 73 77 81 81 92 97 92 90 83 76 75 74 73 78 85 82 83 87 91 100 100 100 99 94 93 92 92 94 92 86 78 73 69 67 66 62 59 57 55 53 51 49 49 50 50 49 46 40 37 34 29 25 23 22 22 21 22 23 24 24 24 25 25 26 25 26 26 26 26 27 28 29 29 30 31 29 28 28 27 26 26 26 26 27 26 26 27
77 91 90 88 85 86 81 67 55 61 75 85 83 69 78 94 88 81 77 72 73 74 71 75 76 70 74 68 72 91 92 93 92 86 89 92 97 97 90 81 75 73 70 70 69 66 63 61 60 58 56 54 53 51 50 48 44 39 36 34 29 26 24 23 23 22 23 25 26 26 26 26 26 27 27 27 27 27 27 27 28 27 27 28 31 33 32 30 28 28 28 28 28 28 30 30 29
93 93 80 77 72 82 96 90 76 74 80 84 77 58 60 77 75 64 61 70 75 76 75 76 76 76 79 61 59 83 85 85 90 88 91 93 95 92 85 79 76 75 73 72 71 70 69 67 64 60 56 53 50 48 46 44 41 38 36 33 29 27 26 25 25 24 25 27 28 28 28 28 28 28 28 28 28 29 28 28 28 27 27 25 27 29 31 31 28 28 30 30 31 31 31 32 33
93 87 71 64 63 76 94 99 93 92 91 87 77 63 57 59 58 46 46 71 79 73 79 86 89 93 90 66 62 86 89 86 91 92 93 92 90 85 81 78 77 76 74 73 72 72 70 67 63 57 52 48 46 44 42 41 40 38 35 32 30 28 28 28 27 27 27 28 29 29 30 30 29 29 29 29 29 29 29 29 28 28 27 26 26 26 30 36 34 35 37 34 35 36 35 36 38
96 90 73 64 66 73 90 100 100 98 89 86 83 73 65 58 56 44 41 62 66 66 83 92 94 100 98 85 82 91 94 93 93 95 94 90 88 84 82 80 79 78 75 72 69 68 65 61 57 53 50 48 47 44 42 41 38 35 33 31 30 30 29 29 29 29 28 28 28 28 28 28 28 28 28 28 28 28 27 27 27 27 26 25 26 25 26 34 38 43 50 47 45 45 43 42 42
100 97 90 83 77 78 92 96 98 100 84 82 83 72 65 60 58 49 47 56 54 64 88 94 95 99 99 99 94 86 92 100 97 96 96 92 89 86 82 80 79 75 69 66 63 60 58 55 54 53 51 50 48 44 42 39 35 33 32 31 30 29 30 29 29 28 27 27 26 26 26 26 25 25 24 24 24 24 24 24 25 24 25 24 24 24 23 26 32 36 47 60 58 52 50 48 45
95 97 99 96 88 87 97 94 96 94 78 83 82 70 63 60 61 57 61 67 60 66 86 96 98 99 100 98 87 77 82 91 93 89 85 83 82 79 76 72 70 65 58 57 58 55 54 51 52 53 51 49 46 42 39 36 35 33 31 31 30 29 29 28 27 25 24 24 23 23 23 23 22 22 21 21 21 21 21 20 21 21 21 22 21 22 22 21 25 26 33 54 61 55 53 49 44
86 93 98 101 96 93 99 98 98 89 78 85 78 71 67 63 68 67 74 84 79 75 88 101 99 97 98 90 78 76 76 73 79 80 76 76 75 72 68 63 59 58 54 54 55 53 53 51 49 49 47 45 42 40 38 36 34 32 31 29 28 26 25 23 21 20 18 18 18 18 18 18 18 18 17 17 17 16 16 16 16 16 16 17 18 18 19 18 20 21 22 34 45 47 47 44 39
72 80 90 100 99 97 100 99 98 88 80 79 75 81 78 67 71 77 84 91 89 85 89 96 94 92 92 81 68 69 72 67 71 77 78 78 74 66 61 57 53 53 51 52 54 50 48 46 44 42 40 38 37 36 34 33 31 28 26 23 21 19 18 17 15 14 13 12 12 12 11 11 11 12 12 11 12 11 11 12 11 12 12 12 13 13 14 15 15 17 17 19 25 29 30 30 27
53 63 78 90 96 98 98 97 94 84 79 77 80 88 84 73 74 81 83 81 81 81 82 81 79 80 76 68 59 57 64 68 70 72 71 68 65 60 55 50 47 46 42 44 47 44 41 39 38 36 34 33 31 30 28 27 24 21 19 17 15 13 12 11 11 10 9 9 8 8 7 7 6 6 6 6 6 7 6 7 7 7 7 7 8 9 8 10 10 11 12 13 14 16 17 17 17
42 49 61 71 83 92 90 87 83 79 81 81 83 83 77 74 73 73 71 69 69 68 68 66 63 63 60 56 53 53 56 57 58 56 53 51 50 48 46 43 40 38 35 36 35 34 32 30 29 29 28 27 25 24 22 20 17 16 14 14 12 11 10 9 9 8 7 7 7 6 6 5 5 4 4 4 3 4 4 3 4 3 3 4 4 4 4 4 5 5 6 7 8 9 10 10 11
39 39 45 54 68 81 80 74 70 72 75 72 71 70 68 67 66 63 60 59 58 56 56 54 51 50 49 47 46 45 43 41 40 39 37 36 34 33 32 32 30 28 27 27 25 24 22 21 22 22 22 21 20 20 17 16 14 13 12 12 11 9 9 8 7 7 6 6 6 5 5 4 4 4 4 4 3 3 3 2 3 3 2 3 2 2 3 2 2 3 3 3 4 4 4 5 5
30 30 32 40 53 65 68 65 62 62 58 54 53 55 56 57 58 59 59 59 56 52 49 45 44 43 42 41 40 38 37 36 35 35 33 30 28 28 27 26 26 25 24 23 21 21 18 19 20 20 20 18 17 16 14 14 12 11 10 9 8 7 6 6 5 5 5 5 5 5 5 5 4 5 5 4 4 4 4 3 3 3 3 2 3 2 2 2 2 2 2 2 2 2 2 2 2
28 29 26 30 40 47 50 52 55 54 48 44 41 41 41 42 46 49 52 57 57 54 50 47 43 40 38 37 37 36 36 36 36 36 35 33 31 29 29 28 27 26 26 24 20 19 17 17 18 16 15 13 12 11 9 9 8 8 6 6 5 5 5 4 5 4 5 4 5 5 4 5 5 5 5 5 5 4 4 4 3 3 3 3 3 3 3 3 3 2 2 2 2 2 2 2 2
32 34 31 33 37 39 39 41 47 44 37 34 32 31 29 29 32 37 42 45 46 46 44 45 45 44 42 40 39 38 38 38 38 38 36 36 34 32 31 28 27 25 25 22 17 14 13 13 13 11 10 8 7 6 6 5 6 6 5 5 5 4 5 4 4 4 4 5 4 5 4 4 5 4 5 5 5 5 4 4 4 4 3 4 3 3 3 2 2 3 3 3 2 2 2 2 2
26 29 31 35 39 41 39 40 42 32 23 23 23 24 24 25 25 34 44 39 37 41 40 42 48 54 54 52 50 46 44 42 42 42 38 37 36 34 31 27 25 22 19 16 12 9 7 7 8 8 6 5 5 6 6 6 7 7 6 6 6 6 6 5 5 4 4 4 4 4 4 4 4 4 4 4 4 4 4 4 4 3 3 3 3 3 3 2 2 3 3 2 3 2 2 2 2
22 23 26 29 32 34 34 35 33 25 21 20 21 25 30 32 31 39 47 37 35 45 45 47 54 59 62 63 62 61 58 52 48 48 44 41 38 32 28 25 21 16 11 8 7 6 5 5 5 5 6 6 7 7 7 7 7 7 8 7 7 7 7 6 6 5 5 4 4 4 4 4 3 4 3 3 4 4 4 4 4 3 3 3 2 3 2 3 2 2 2 2 2 2 2 2 2
23 21 21 23 23 24 25 26 24 22 21 21 23 28 34 33 30 34 37 33 37 44 43 44 49 52 54 57 58 61 62 58 55 54 49 44 39 30 22 18 14 8 6 5 5 5 5 5 6 6 7 8 8 8 8 8 8 8 8 8 9 9 8 8 8 7 7 7 7 7 7 6 5 5 4 4 4 3 3 3 3 3 3 3 2 3 2 2 2 2 2 2 3 2 3 3 3
16 15 16 17 17 18 19 19 19 20 20 20 23 27 30 26 22 23 24 26 34 40 39 38 39 39 40 41 42 44 46 49 51 49 45 40 33 22 14 10 7 5 5 5 6 6 7 7 8 8 8 9 9 9 9 9 9 9 9 9 10 10 10 10 10 10 11 11 11 11 11 10 10 9 7 7 5 5 5 4 3 3 3 3 2 2 2 2 2 3 3 3 3 3 3 3 3
8 9 10 10 11 12 11 11 12 14 14 15 18 21 23 20 19 22 21 23 27 31 33 34 34 33 32 32 31 30 30 33 35 34 33 27 19 11 7 6 5 5 6 6 7 7 8 8 9 9 9 10 10 10 10 10 10 10 10 11 11 11 12 12 12 12 13 13 13 13 14 13 13 13 12 11 10 9 9 8 7 5 4 4 3 3 2 2 3 3 3 3 3 3 3 3 3
8 7 7 8 7 7 6 7 7 7 8 8 9 12 13 12 13 16 17 19 19 20 22 23 25 25 25 26 26 24 23 22 19 18 17 12 8 6 6 6 6 7 7 7 8 8 9 9 9 10 10 10 10 10 10 10 10 11 11 12 12 12 12 13 13 13 13 14 14 14 14 14 14 14 14 14 14 13 13 13 12 11 9 8 6 5 4 3 3 3 2 2 3 3 3 3 3
9 8 8 8 7 7 7 7 7 6 7 7 6 7 8 6 6 7 8 9 10 10 10 10 11 12 13 15 17 16 14 12 9 8 8 6 6 6 6 7 7 8 8 8 9 9 9 10 10 10 10 10 10 10 10 11 11 11 12 12 13 13 13 13 13 14 14 14 14 15 15 15 15 15 15 15 15 15 15 15 15 15 14 13 11 10 8 7 6 5 4 3 3 3 3 3 3
9 9 9 9 8 8 8 8 9 8 8 8 8 8 8 7 7 6 6 7 7 7 7 7 7 6 6 6 8 8 7 6 6 6 6 6 7 7 7 8 8 8 9 9 9 10 10 10 10 10 10 10 10 11 11 11 11 11 12 13 13 13 13 14 14 14 15 15 15 15 15 16 16 16 16 16 16 16 16 16 16 16 16 16 15 14 13 12 11 10 9 8 8 7 7 6 5
11 10 9 9 9 9 9 9 9 9 9 9 9 9 9 9 8 8 8 8 8 8 9 9 8 8 7 7 7 6 7 7 7 7 7 7 7 8 8 8 9 9 9 9 9 10 10 10 11 10 11 11 11 11 11 12 12 12 13 13 13 14 14 14 15 15 15 15 16 16 16 16 16 17 17 17 17 18 18 18 18 18 18 18 17 17 16 15 15 14 13 13 13 12 12 11 10
19 17 15 13 12 11 11 11 11 10 9 9 9 9 9 10 10 9 10 9 9 10 10 10 9 9 9 9 9 9 9 9 9 9 8 9 9 8 9 9 10 10 10 10 10 11 11 11 11 11 12 12 12 12 12 13 13 13 13 14 14 14 15 15 15 15 16 16 16 16 16 17 17 17 18 18 18 19 19 19 19 19 20 20 20 19 19 18 17 16 16 16 16 16 15 14 14
30 29 28 26 24 21 20 20 21 19 16 15 13 12 11 11 10 10 10 9 10 9 9 10 9 9 10 9 10 10 10 10 10 10 10 10 10 10 10 10 10 10 11 11 11 11 11 11 11 12 12 12 13 13 13 14 14 15 15 15 16 16 16 16 16 16 17 17 17 17 17 18 18 18 18 18 19 19 19 20 20 21 21 21 21 21 21 20 20 19 19 19 19 19 18 17 17
41 40 38 37 36 35 35 34 32 32 32 31 28 27 25 24 24 23 21 18 17 16 15 14 13 13 13 11 11 11 10 10 10 10 10 10 10 10 10 10 11 11 11 11 11 11 11 12 12 12 13 13 14 14 14 15 15 15 15 16 16 17 18 18 19 19 19 19 19 19 19 19 19 20 20 20 20 20 20 21 21 22 22 22 22 22 22 22 22 22 22 22 22 22 22 21 20
43 45 44 42 40 41 43 40 37 39 41 41 41 41 41 42 43 41 39 37 35 33 32 30 29 27 25 23 21 20 18 17 16 15 14 13 13 13 12 12 12 12 13 13 13 13 14 14 14 15 15 16 16 17 17 18 18 19 19 20 20 20 21 22 22 22 22 22 22 22 21 21 22 22 22 22 22 22 22 22 22 23 23 23 23 23 24 24 24 24 24 24 25 24 24 24 23
35 38 40 40 40 40 40 37 34 36 37 41 44 46 49 54 56 57 57 56 54 53 52 49 48 46 44 43 40 38 36 34 32 30 28 27 25 24 23 22 22 22 22 23 23 23 23 23 24 25 25 26 27 27 28 29 29 30 30 30 30 30 30 30 30 29 29 28 28 27 27 26 26 26 27 27 27 26 26 26 26 26 26 25 25 25 25 25 26 26 26 26 25 25 25 26 26
33 34 34 37 40 39 40 40 38 39 42 48 49 50 60 66 67 71 71 69 68 69 69 66 64 63 61 60 59 58 56 54 52 51 48 47 45 43 41 40 39 39 39 39 39 39 39 39 39 40 41 43 44 44 45 45 45 45 45 44 44 44 43 42 41 40 40 39 38 37 36 35 34 34 34 33 33 32 32 32 32 32 31 30 29 28 29 29 29 28 28 28 27 27 26 27 28
41 41 42 46 48 47 51 53 50 49 50 51 50 54 66 69 68 74 77 76 77 76 77 77 75 74 73 71 70 70 69 69 69 69 69 69 68 66 65 64 62 61 60 58 58 58 58 59 60 61 62 63 63 63 63 63 63 62 61 60 59 59 58 58 56 54 53 52 50 49 48 46 45 44 43 42 41 40 39 39 38 38 37 36 35 34 34 33 33 32 31 31 30 30 29 29 30
50 50 52 54 53 54 56 53 50 52 52 48 47 56 66 66 68 73 71 72 78 79 80 82 81 82 81 79 79 78 78 78 79 80 82 83 83 83 82 82 81 79 77 75 74 74 74 75 75 76 76 75 75 74 73 73 72 72 72 71 71 69 68 69 68 68 66 65 64 62 60 59 57 56 54 52 51 49 48 46 45 44 43 43 42 41 40 39 37 36 35 35 34 33 33 32 32
49 46 47 49 48 49 48 43 42 45 48 43 43 57 65 65 71 73 62 58 62 64 67 73 78 80 81 82 84 84 85 85 84 83 83 83 82 82 81 81 80 79 78 77 76 76 76 76 76 76 76 76 75 75 75 74 73 73 73 73 73 73 72 72 73 73 73 72 72 71 70 70 69 68 66 65 63 61 59 57 55 53 52 50 48 47 46 44 43 42 41 40 39 38 37 36 35
43 39 43 45 43 42 41 41 37 37 40 35 34 46 52 56 69 72 61 54 49 42 42 55 67 72 77 79 79 80 81 82 81 80 78 77 75 74 73 72 71 70 69 68 68 68 68 69 69 69 69 70 71 71 71 70 69 69 68 67 67 68 69 69 70 71 71 72 72 72 72 72 73 73 73 72 71 70 69 68 66 64 62 60 58 55 53 51 50 48 47 46 44 43 43 41 40
36 37 42 40 36 36 36 37 34 33 34 31 34 40 40 46 59 66 63 59 50 33 30 50 66 70 74 74 74 74 74 74 74 74 72 71 70 68 67 66 65 65 64 63 63 62 63 63 63 63 62 62 62 62 62 61 61 60 60 60 59 59 60 60 61 62 63 64 65 67 68 68 69 70 71 72 72 72 72 72 71 70 69 68 66 65 62 60 58 55 54 52 50 49 48 47 46
33 35 36 33 32 34 34 34 34 34 31 31 40 42 40 45 51 57 63 62 52 33 32 54 67 69 69 68 68 68 66 65 63 62 61 59 59 57 56 56 55 55 55 54 53 52 51 51 50 49 48 48 47 47 47 46 46 46 46 46 45 46 47 47 48 49 49 51 52 53 54 55 57 58 60 61 63 64 66 67 68 69 69 69 69 68 67 66 64 63 61 58 56 55 54 52 51
30 31 33 31 33 34 34 34 33 35 33 34 42 41 41 52 53 52 60 62 52 38 40 55 61 62 62 59 57 54 50 49 46 45 43 41 40 38 37 35 34 33 32 31 31 30 29 28 27 26 25 25 26 26 26 26 27 27 27 27 27 28 29 29 30 31 32 32 33 33 34 35 37 38 39 41 43 45 47 49 51 54 56 59 60 62 63 64 64 64 64 63 62 60 58 57 55
27 31 33 33 37 38 37 37 35 39 40 36 43 46 47 60 62 53 56 60 52 44 47 53 53 53 51 46 41 38 34 31 28 27 25 23 22 21 19 17 16 15 14 13 13 12 12 11 10 10 10 10 10 10 11 11 11 12 12 12 13 13 14 14 15 15 16 16 16 16 17 18 19 20 21 22 23 24 26 28 29 31 34 36 39 41 44 46 49 51 53 55 57 57 57 57 56
30 35 34 34 40 38 35 38 39 46 49 40 44 50 49 60 63 53 53 57 51 46 47 46 44 41 36 31 27 23 20 17 15 14 13 13 12 11 10 9 9 8 7 7 6 6 6 5 5 5 5 5 5 5 5 5 6 6 6 6 6 6 7 7 7 8 8 8 8 8 8 9 9 10 10 10 11 12 12 13 14 15 17 18 19 21 22 24 26 28 30 33 36 38 40 42 43
35 37 36 37 43 41 38 41 42 48 52 43 44 51 52 59 59 51 50 51 45 43 41 37 33 28 23 19 15 13 11 10 9 9 8 8 8 8 8 7 7 7 6 6 6 6 5 5 5 5 5 5 5 5 5 5 5 5 5 5 5 5 6 6 6 6 6 6 6 6 6 6 6 7 7 7 7 7 7 7 7 8 8 9 9 10 11 12 13 13 14 15 17 18 20 21 23
39 37 40 43 47 48 48 51 52 57 60 50 47 54 56 55 51 45 44 41 37 34 30 25 21 17 14 12 11 10 9 9 8 8 8 8 7 7 7 7 7 7 6 6 6 6 6 6 5 5 5 5 5 5 5 5 5 5 5 5 5 6 6 6 6 6 6 7 7 7 7 7 7 7 7 7 7 7 6 6 6 6 6 6 6 6 7 7 7 8 8 8 8 9 9 10 11
37 39 48 50 51 55 54 55 58 60 62 57 51 51 49 46 42 39 35 30 27 23 18 16 13 12 11 10 10 10 9 9 9 8 8 8 8 8 8 8 8 7 7 7 7 7 6 6 6 6 6 5 5 5 5 5 5 5 5 5 5 5 5 5 6 6 6 6 7 7 7 7 8 8 8 8 8 7 7 7 7 7 7 7 6 6 6 6 6 6 6 6 6 6 6 6 6
36 41 52 53 55 61 58 56 57 54 54 52 45 40 38 36 33 31 28 23 19 16 14 12 11 11 11 11 11 10 10 10 9 9 9 9 9 9 8 8 8 8 8 7 7 7 7 7 6 6 6 6 6 5 5 5 5 5 5 5 5 5 5 5 6 6 7 7 8 8 8 8 9 9 9 9 9 9 8 8 8 8 8 8 8 7 7 7 7 6 6 6 6 6 6 6 6
40 40 49 53 58 60 56 53 51 46 44 42 36 31 29 28 27 25 23 18 16 14 13 12 12 12 12 12 12 11 11 11 10 10 10 10 10 9 9 9 9 9 8 8 8 7 7 7 6 6 6 6 6 5 5 5 5 5 5 5 5 5 5 6 7 8 8 9 10 10 10 11 11 11 12 11 11 10 10 9 9 9 9 8 8 8 8 8 8 7 7 7 7 6 6 6 6
49 46 48 52 54 50 47 46 42 36 35 34 30 23 20 21 22 24 21 16 14 14 13 14 14 13 13 13 13 12 12 12 11 11 11 11 10 10 10 9 9 9 8 8 8 7 7 7 6 6 6 5 5 5 5 5 5 5 5 6 6 6 7 8 9 10 10 11 11 12 12 13 13 13 13 13 13 12 11 11 10 10 9 9 9 9 9 9 9 8 8 8 7 7 7 7 7
54 53 50 51 48 42 38 35 33 30 28 28 26 19 17 17 18 20 18 15 15 15 15 16 15 15 15 14 14 13 13 12 12 12 12 11 10 10 10 10 9 9 8 8 8 7 7 6 6 6 5 5 5 5 5 6 6 7 7 8 9 10 11 12 12 13 14 14 15 15 15 15 15 15 14 14 13 13 12 11 11 10 10 10 9 9 9 9 9 9 9 8 8 8 8 8 8
53 52 48 46 41 36 32 28 25 23 21 22 23 20 18 17 17 17 17 17 17 17 17 17 16 16 15 15 14 14 13 13 13 12 12 11 10 10 9 9 9 8 8 7 7 7 6 6 6 6 6 6 6 7 8 8 9 10 11 12 13 13 14 15 16 16 17 17 17 17 17 16 16 15 14 14 13 13 12 12 11 10 10 10 9 9 9 9 9 9 9 9 9 9 9 9 9
51 49 43 39 34 29 28 25 20 18 17 18 19 20 20 19 19 18 19 19 19 19 18 17 17 16 16 15 15 14 14 13 12 12 11 10 10 9 9 8 8 8 7 7 7 7 7 7 8 9 10 11 11 12 13 14 14 15 15 16 16 17 17 17 18 18 18 18 18 17 17 16 16 15 14 14 13 12 11 11 10 10 9 9 9 9 9 9 9 9 10 10 10 10 10 10 10
46 44 38 33 29 26 24 23 20 18 19 19 19 21 22 22 21 21 21 21 20 20 19 18 18 17 16 16 15 14 13 12 12 11 10 9 9 9 8 8 7 7 7 8 9 10 11 12 14 15 15 16 17 17 18 18 18 18 19 19 19 19 19 19 19 19 19 18 18 17 17 16 15 14 14 13 12 11 11 10 10 9 9 8 8 9 9 10 10 11 12 12 13 14 13 13 14
Wind_Speed
38 36 35 35 36 35 30 28 29 28 29 31 29 29 27 26 24 23 23 22 21 19 15 15 14 11 12 15 18 23 30 36 39 41 42 41 37 33 32 31 30 29 27 26 26 26 26 27 27 28 28 27 27 26 26 25 24 24 24 24 24 24 24 25 25 25 26 26 26 27 27 28 28 29 29 29 29 29 30 30 30 30 30 30 30 30 30 30 30 30 30 30 30 30 30 30 30
36 34 33 33 34 34 30 29 30 29 29 30 31 31 29 27 24 24 25 22 19 16 15 16 14 12 13 15 16 18 23 28 32 35 38 40 39 36 34 31 30 27 26 25 25 25 26 27 28 28 28 28 27 26 26 25 24 24 24 23 23 24 24 25 26 26 26 27 27 28 28 29 29 29 29 30 30 30 31 31 31 31 32 32 32 32 32 32 31 31 31 31 32 32 31 31 31
35 33 32 31 32 32 30 30 30 29 29 28 31 32 30 29 26 27 25 20 17 17 17 17 16 16 17 19 19 18 17 20 23 24 28 34 37 35 31 29 27 26 25 25 25 25 26 27 28 28 28 27 26 26 26 26 25 25 25 25 25 25 26 26 27 27 28 28 29 29 29 29 30 30 30 31 31 31 31 32 32 33 33 33 33 33 33 33 33 33 32 33 33 33 33 33 33
34 33 32 30 30 30 29 30 30 30 29 28 30 32 30 28 27 28 25 20 19 19 18 18 18 19 20 21 21 20 18 19 19 18 20 24 28 28 25 24 24 25 25 25 25 25 26 26 27 27 27 27 26 26 25 25 25 26 26 27 27 28 28 28 29 29 29 30 30 30 31 31 31 31 31 32 32 32 32 33 33 34 34 34 34 34 34 34 34 34 34 34 34 34 35 35 35
33 33 32 31 29 29 29 31 32 31 30 30 30 31 29 28 28 28 24 21 21 20 21 20 20 21 23 24 22 22 20 18 18 18 19 20 22 24 23 23 24 26 26 26 26 26 26 26 27 27 27 27 26 26 25 25 26 27 28 29 30 30 31 31 31 31 31 31 32 32 32 32 32 33 33 33 33 33 33 34 34 34 35 35 35 35 35 35 35 35 35 36 36 36 36 36 37
34 33 31 32 30 30 31 31 33 32 32 32 31 29 29 28 28 29 25 22 22 22 23 23 23 24 26 26 25 26 22 19 20 20 21 21 22 24 25 25 26 27 27 26 27 27 26 27 27 28 28 28 27 26 25 26 27 28 30 31 31 32 32 33 33 33 33 34 34 34 34 34 34 34 34 34 34 34 35 35 35 35 36 36 36 37 36 36 36 36 37 37 37 37 37 38 38
34 34 31 32 32 31 32 32 33 32 32 33 31 29 30 30 28 27 25 24 24 24 24 25 26 27 28 28 29 29 24 22 22 22 22 22 24 26 27 27 26 27 27 27 27 27 27 28 28 29 29 29 28 27 27 28 29 30 31 32 32 32 33 33 34 34 35 35 35 36 36 36 36 36 36 36 36 36 36 36 36 36 37 38 38 38 38 37 37 37 37 37 38 38 38 38 39
34 35 32 31 33 33 32 32 33 33 33 33 32 31 31 32 30 27 26 25 24 24 23 25 27 28 30 30 31 31 27 25 25 25 25 25 27 28 29 29 28 27 27 27 27 28 28 29 29 30 31 31 30 30 30 30 31 32 33 33 33 33 33 34 35 35 36 36 36 36 37 37 37 37 37 37 37 37 36 36 37 37 38 38 38 38 38 38 38 38 38 38 38 39 39 39 39
34 33 32 31 32 34 33 32 32 32 32 34 35 33 31 31 30 27 27 28 27 26 24 25 27 29 29 29 31 31 30 28 28 29 29 30 31 31 31 30 29 28 28 27 28 28 29 29 30 31 32 33 32 33 34 34 35 35 35 35 35 35 35 35 36 36 37 37 37 37 38 38 38 38 39 39 39 39 38 37 37 37 38 38 38 39 39 39 38 38 38 38 39 39 39 39 38
32 31 30 30 31 33 34 34 32 30 30 32 36 36 33 31 30 28 28 29 29 29 27 27 30 31 31 31 32 33 33 31 30 30 31 32 33 33 32 30 29 28 28 28 28 29 29 30 31 32 34 35 36 37 38 38 38 38 37 37 37 37 37 38 38 39 38 38 38 38 39 39 39 39 40 40 40 40 40 39 38 38 38 38 39 39 39 39 39 39 39 40 40 40 40 39 39
29 28 30 31 31 31 31 33 33 31 31 31 34 37 35 32 32 32 31 30 30 30 29 29 32 33 33 35 36 36 35 33 31 31 31 31 32 32 31 29 29 29 29 29 29 30 31 32 33 34 36 38 39 41 41 41 40 39 38 38 38 39 40 40 41 41 41 40 40 39 40 40 41 41 41 41 41 41 41 41 40 40 40 40 40 40 40 40 40 40 41 41 41 41 41 41 40
27 26 28 30 31 30 27 31 33 32 33 33 34 37 36 35 37 37 34 31 30 31 31 31 33 33 35 38 37 36 36 33 31 30 29 29 29 29 29 29 30 31 31 32 33 33 34 35 37 38 40 41 42 42 42 41 40 39 39 39 40 41 42 42 42 42 42 42 41 41 41 41 41 42 42 42 42 42 42 42 42 42 42 42 42 41 41 41 42 42 42 42 42 42 42 42 42
26 25 27 29 31 31 29 29 31 30 32 35 36 37 37 36 39 40 37 34 33 33 33 33 33 33 37 40 39 36 36 34 31 29 28 28 28 29 31 32 33 34 35 36 37 37 38 39 40 40 41 42 42 42 41 41 40 40 40 41 42 42 43 43 43 43 43 43 42 42 42 41 42 42 42 43 43 43 43 43 43 44 44 45 44 44 43 43 43 42 43 43 43 43 42 42 42
23 25 28 28 30 32 31 30 29 30 33 34 34 36 37 35 37 39 37 38 38 36 36 34 34 35 37 38 37 33 32 33 31 29 29 30 32 33 35 36 37 38 38 39 40 41 41 41 41 41 41 41 41 40 40 40 41 41 42 43 43 43 43 43 43 43 43 43 43 43 43 43 43 43 43 44 44 44 45 45 45 45 46 46 46 46 46 45 45 44 43 43 43 43 43 43 43
17 18 25 27 29 28 27 29 30 31 34 35 34 34 34 33 35 37 38 40 40 39 36 35 37 38 37 36 34 30 29 32 32 32 33 34 36 38 39 39 40 41 41 42 42 42 42 42 41 40 40 39 39 40 40 41 42 43 43 44 44 44 43 43 43 43 43 44 44 44 44 44 45 45 45 45 46 46 46 46 46 47 47 48 48 48 48 48 48 47 46 45 45 45 45 45 44
18 12 19 25 28 25 20 24 29 33 37 36 35 34 32 32 33 35 37 39 40 39 36 35 38 40 41 41 39 34 34 35 35 36 36 37 39 41 41 42 42 43 43 42 43 42 42 41 40 38 38 39 40 41 42 42 43 44 44 44 44 44 44 44 43 43 44 44 45 45 46 46 47 48 48 48 48 48 48 48 48 49 49 50 50 50 50 50 50 50 49 49 48 48 48 47 47
25 16 16 22 24 23 17 17 23 30 36 36 35 34 33 32 32 32 33 34 37 37 35 35 37 39 40 41 39 38 38 36 35 38 38 39 40 41 41 42 41 42 42 41 41 40 40 39 38 38 39 40 41 42 43 44 44 45 45 45 45 44 44 44 44 44 44 45 45 46 46 47 48 49 49 50 50 50 50 50 51 51 51 52 52 52 52 52 52 52 52 52 52 52 51 51 51
26 22 18 18 19 20 17 16 21 30 33 33 31 29 30 31 30 30 30 31 33 34 33 33 35 36 37 37 36 35 36 35 34 36 37 38 40 40 40 40 40 40 39 38 38 38 38 38 38 39 40 42 43 44 44 45 45 45 45 45 45 44 44 44 44 44 44 45 45 46 46 47 47 48 48 49 50 50 51 51 52 52 52 53 54 54 54 54 54 54 54 55 55 56 56 55 55
24 24 21 18 17 19 19 18 23 28 29 27 24 24 27 28 28 28 28 29 29 30 30 30 32 33 34 35 34 32 32 32 31 32 34 36 36 37 37 37 38 38 37 36 36 36 38 39 40 42 43 44 45 45 45 45 45 45 45 46 45 45 44 44 45 45 45 46 46 47 47 46 46 47 47 47 48 49 49 50 50 51 52 53 54 54 54 54 55 55 55 56 57 58 58 58 59
22 25 24 22 20 19 19 20 22 23 22 21 20 22 25 25 25 23 24 26 25 25 27 29 30 30 31 32 31 29 28 28 29 30 31 32 33 33 34 36 37 37 36 36 36 36 38 40 42 44 45 46 47 47 46 46 46 46 46 46 46 46 46 47 47 47 47 48 48 48 48 47 47 47 47 46 46 47 47 47 48 48 49 50 51 51 51 51 52 53 54 55 56 57 58 59 60
20 22 25 27 26 22 21 21 21 19 17 18 18 19 22 23 22 20 21 23 23 24 26 27 27 27 28 30 31 29 26 25 27 29 30 31 32 33 34 35 37 36 35 37 37 37 39 42 44 45 46 47 48 48 47 47 47 47 47 48 48 48 48 49 48 49 50 50 49 49 49 49 49 48 48 48 47 47 47 47 47 47 47 47 47 47 47 47 48 49 51 52 53 54 55 56 57
18 19 23 27 28 26 25 22 19 18 18 20 20 19 21 23 22 20 21 22 24 25 26 27 26 27 29 31 32 32 29 27 28 30 31 32 33 34 35 36 37 37 37 38 39 40 42 44 46 47 47 48 48 48 48 48 48 49 49 49 50 50 50 49 49 50 50 51 50 50 51 51 50 50 50 50 50 49 48 48 48 48 48 47 47 47 47 47 47 48 49 49 50 51 51 51 52
20 20 21 24 26 28 30 27 24 24 24 24 24 24 25 26 26 26 26 27 27 27 27 29 29 30 31 33 34 34 34 33 32 33 34 34 35 35 36 37 38 39 39 39 41 42 44 46 46 47 47 47 47 47 47 47 48 48 48 48 49 49 49 49 50 50 50 50 50 51 51 51 51 51 51 52 52 52 51 49 49 49 49 48 49 49 48 48 48 48 48 48 48 49 49 49 49
18 20 22 23 25 28 30 30 29 28 29 29 29 28 29 30 31 31 32 34 33 33 33 34 35 35 34 35 36 37 38 38 37 37 38 37 37 38 38 38 38 40 41 41 42 44 46 47 47 47 46 46 46 45 46 46 46 47 47 47 48 48 49 49 50 50 50 50 51 51 51 51 51 51 51 51 52 52 52 51 50 49 48 48 49 49 49 48 48 47 47 46 47 47 47 47 46
15 18 20 22 24 27 29 30 30 30 32 32 31 31 31 32 33 34 35 36 36 37 38 39 40 40 39 39 39 40 41 42 41 41 42 41 41 41 40 40 40 40 42 43 44 45 45 46 46 47 46 45 45 45 45 46 46 47 48 48 48 48 49 49 50 50 50 50 50 50 51 51 51 51 51 50 50 51 52 51 51 50 49 48 48 48 48 47 46 45 45 44 44 44 43 42 41
13 15 16 18 21 24 26 28 29 30 31 31 31 32 32 33 34 34 36 37 37 37 38 40 41 42 43 43 43 43 44 44 44 44 44 43 43 42 42 43 42 41 42 43 44 44 45 45 45 45 45 45 46 46 47 47 48 49 49 49 49 49 50 50 51 51 50 50 50 50 50 50 50 50 51 50 50 50 50 51 52 52 51 50 48 47 47 46 45 44 43 42 42 41 41 40 39
10 11 13 15 17 19 21 24 26 26 28 29 29 29 29 32 33 34 35 35 34 34 36 38 39 40 42 43 44 45 46 46 45 46 46 45 44 44 44 43 42 41 41 41 42 43 44 44 44 45 45 46 47 48 49 49 50 50 50 50 51 51 51 51 51 51 51 51 50 50 50 50 50 50 50 50 50 50 50 51 52 52 52 52 50 48 46 45 45 44 44 43 42 42 42 42 42
9 9 10 11 13 15 18 20 21 22 25 25 25 25 28 32 34 34 34 33 31 30 33 36 37 39 41 42 44 45 48 47 45 46 46 46 45 44 43 43 42 41 41 42 43 44 45 45 46 46 47 48 49 50 51 51 51 52 52 52 53 53 53 53 53 53 53 52 52 51 51 51 51 51 51 51 51 51 51 51 52 52 52 52 52 51 49 48 47 46 46 45 45 45 45 45 45
11 11 11 12 13 14 15 15 16 19 20 19 20 22 26 31 32 30 30 31 31 30 32 34 36 38 40 42 44 45 47 47 45 45 46 45 44 43 42 42 42 42 43 44 45 46 47 47 48 49 49 51 52 52 53 53 53 53 54 54 55 55 55 55 55 55 55 55 55 54 54 54 53 53 53 52 52 52 52 52 53 53 53 53 53 53 53 52 51 50 50 49 49 49 49 49 49
13 13 13 14 16 16 15 15 17 19 18 18 19 19 24 28 27 24 24 26 30 32 33 34 36 38 40 42 44 45 45 45 43 44 45 44 43 43 42 43 44 45 45 46 47 49 49 50 50 51 52 52 53 54 54 54 54 55 56 56 57 58 58 58 58 58 58 58 58 58 57 57 57 56 56 55 55 54 54 54 54 54 55 55 55 55 55 55 54 54 53 53 53 53 53 53 53
16 16 16 17 18 19 18 17 19 21 19 20 21 21 25 28 26 22 22 24 28 32 34 36 37 38 41 42 43 44 44 44 43 43 44 45 45 45 45 46 46 47 48 49 50 51 52 52 53 53 54 54 55 56 57 57 57 58 59 59 60 60 60 61 61 61 61 61 61 61 60 60 60 60 59 58 58 58 57 57 57 56 57 57 57 57 57 56 56 56 56 56 56 56 56 57 56
19 19 19 19 19 21 21 20 21 23 23 23 24 25 27 29 29 26 25 26 29 32 34 37 39 41 43 42 42 44 45 45 46 45 46 47 48 49 50 50 50 51 52 52 53 54 54 55 55 56 57 57 58 58 59 60 61 61 62 62 62 63 63 63 63 63 63 63 63 63 63 63 62 62 62 62 61 61 60 60 59 59 59 59 59 59 59 58 58 58 57 57 57 58 58 58 59
22 21 21 21 21 24 26 24 23 25 27 26 27 29 30 30 32 31 30 31 33 35 36 38 41 44 45 44 45 47 47 48 49 49 50 50 51 53 54 54 55 55 55 56 56 57 58 58 58 59 60 60 61 62 62 63 64 64 64 64 65 65 65 65 65 65 65 65 65 65 65 65 65 65 65 65 65 64 63 63 62 62 62 62 62 62 62 61 60 60 59 59 59 59 59 59 59
23 21 20 22 24 26 29 29 27 27 29 29 31 32 32 32 34 35 34 36 38 40 40 41 45 47 47 47 48 49 50 51 52 53 53 54 55 55 56 57 58 58 59 59 60 60 61 61 61 62 62 63 63 64 65 66 66 66 67 67 67 67 67 67 67 67 67 67 67 67 67 68 68 68 68 68 68 67 67 66 65 65 65 64 64 64 64 64 63 62 62 61 61 61 60 60 60
23 22 21 22 24 27 30 32 29 28 29 30 32 34 34 34 35 36 38 40 43 44 45 46 49 49 49 50 51 52 53 55 56 57 57 57 58 58 59 60 60 61 61 62 62 63 63 64 64 65 65 66 66 67 67 68 68 69 69 69 69 69 69 69 69 69 69 69 69 69 70 70 70 70 71 71 71 71 70 69 68 68 67 67 67 67 66 66 65 65 64 64 63 63 62 62 61
23 23 23 23 25 26 30 34 32 28 29 30 32 34 34 34 34 36 40 42 44 47 48 50 51 50 50 53 54 55 56 57 58 59 60 60 61 61 62 62 62 63 63 64 64 65 65 66 66 67 68 68 69 69 69 70 70 70 71 71 71 71 72 72 72 72 72 72 72 72 72 72 72 73 73 73 73 73 73 72 72 71 70 70 70 69 69 68 68 67 67 66 66 65 65 64 64
24 24 25 26 26 27 30 35 33 30 31 32 32 34 35 34 34 36 40 43 45 47 50 51 51 51 52 55 56 57 58 59 60 61 62 62 63 63 64 64 65 65 66 66 66 67 67 67 68 69 69 69 70 70 71 71 71 71 72 72 72 73 73 73 73 74 74 74 74 74 75 75 75 75 75 75 75 75 75 74 74 74 73 73 73 73 72 71 71 71 70 70 69 68 67 67 66
26 26 27 27 28 29 31 35 35 33 34 35 35 37 37 35 35 36 39 42 44 46 48 51 52 52 53 55 56 57 58 59 60 61 62 63 63 64 64 65 65 66 66 66 67 67 68 68 68 69 69 70 70 70 70 71 71 71 71 72 72 72 73 74 74 74 74 75 75 75 76 76 76 77 77 77 77 77 77 76 76 76 75 75 75 75 75 74 74 74 74 73 73 72 71 70 69
28 28 28 28 29 31 32 35 37 36 35 37 39 40 37 37 38 38 38 40 42 44 47 49 50 52 53 54 55 56 57 58 59 60 61 62 62 63 63 64 65 65 66 66 67 67 68 68 69 69 69 70 70 70 70 71 71 71 72 72 72 73 73 74 74 75 75 75 75 76 76 77 77 78 78 78 78 78 78 78 78 78 78 77 77 78 77 77 76 76 76 76 76 76 75 74 73
29 30 30 29 31 33 34 36 38 38 38 39 41 41 38 39 41 41 40 41 42 44 46 47 48 50 51 52 53 54 55 56 57 59 59 60 61 61 62 63 64 65 66 67 68 68 69 69 69 69 70 70 70 71 71 72 72 73 73 74 74 74 74 75 75 76 76 76 77 77 77 78 78 78 79 79 79 80 80 80 80 80 80 80 80 80 80 79 79 78 78 79 78 78 77 77 77
31 32 32 31 33 35 36 37 39 39 40 42 43 42 41 42 44 44 45 45 44 44 46 48 49 49 50 51 51 52 53 54 55 57 58 59 60 60 61 62 63 65 66 67 67 68 69 69 69 70 70 71 71 72 72 72 72 73 73 74 74 75 75 75 76 76 77 77 78 78 78 79 79 79 79 80 80 81 81 81 82 82 82 82 82 82 82 82 81 81 80 81 81 80 80 79 79
33 34 32 32 35 37 38 39 40 40 42 44 44 43 43 44 45 47 51 50 48 46 48 50 50 50 50 50 50 50 51 52 53 55 56 58 59 60 61 62 63 64 64 65 66 66 67 68 68 69 69 70 70 70 70 71 71 71 72 72 72 73 74 74 75 75 76 77 77 78 78 79 79 80 80 81 81 81 82 82 82 83 83 84 84 84 84 84 84 83 83 83 83 83 82 81 81
34 34 33 34 36 37 38 40 41 42 43 45 46 45 46 46 46 49 52 53 53 51 50 52 51 49 49 48 49 50 50 51 51 52 53 55 56 58 59 60 61 62 63 64 64 64 65 66 67 67 67 68 68 68 69 69 70 71 71 72 72 72 73 73 74 74 75 75 76 77 77 78 79 79 80 81 81 82 82 83 83 83 84 84 84 85 85 85 85 85 85 85 85 85 84 83 82
34 33 33 35 37 38 40 41 42 44 45 46 46 47 48 48 47 49 51 53 55 54 53 53 50 48 48 47 48 48 48 49 49 50 51 52 53 54 56 57 58 59 60 61 62 63 63 64 65 66 66 67 68 68 69 70 71 71 72 73 74 74 74 74 75 75 76 76 76 77 77 78 78 79 80 80 81 81 82 83 83 84 84 85 85 85 86 86 86 86 86 86 87 87 86 85 85
34 34 35 37 38 39 41 42 43 44 45 45 46 47 49 49 49 49 49 51 55 55 54 52 48 47 48 47 47 46 46 47 48 49 50 51 52 53 54 55 57 58 59 60 61 62 63 63 64 65 66 68 69 70 70 71 72 73 74 74 75 76 76 77 77 77 78 78 79 79 79 80 80 80 81 81 81 82 82 83 83 84 84 85 85 85 86 86 87 87 87 87 88 88 88 87 87
34 35 36 38 39 40 42 43 44 45 45 45 46 48 49 48 48 48 48 51 54 54 53 50 47 47 48 48 48 48 47 48 49 51 52 53 54 55 55 56 57 58 59 60 61 63 64 65 66 67 68 69 70 71 72 73 74 74 75 76 76 77 77 78 79 79 80 80 80 81 81 82 82 82 83 83 83 83 84 84 84 84 85 85 86 86 86 87 87 87 87 87 88 88 89 89 88
35 36 37 38 39 40 42 43 44 45 45 46 47 48 48 47 46 47 48 50 52 52 51 50 48 47 48 49 49 50 50 51 53 54 56 57 57 58 59 59 60 61 62 63 64 65 66 67 68 69 70 71 71 72 73 74 75 76 76 77 78 78 79 79 80 80 81 81 81 81 82 82 83 83 84 84 85 85 85 86 86 86 86 86 86 87 87 87 87 87 87 88 88 88 88 88 89
35 36 38 38 39 41 42 43 43 43 44 46 46 47 47 45 44 46 47 49 51 51 50 50 50 49 49 50 50 51 53 54 56 58 59 61 61 62 62 63 64 66 66 67 67 68 69 70 70 71 72 73 73 74 74 75 76 76 77 78 79 79 80 80 81 81 81 82 82 82 83 83 84 84 85 85 85 86 86 87 87 88 88 88 88 88 88 88 88 88 88 88 88 88 88 88 88
35 37 38 38 39 41 42 43 43 43 44 46 46 47 47 45 45 46 46 48 50 50 49 49 50 51 51 52 53 54 55 56 58 60 61 63 64 65 66 67 68 70 71 71 72 72 73 74 75 75 76 77 77 78 78 78 78 78 78 78 79 79 80 80 80 81 81 81 82 82 83 83 84 84 85 85 86 86 87 87 88 88 88 89 89 89 89 89 89 89 89 89 89 88 89 88 88
36 38 38 38 39 40 41 41 41 42 43 45 46 46 45 45 46 47 46 47 48 49 50 49 50 51 53 54 55 56 58 59 61 62 63 65 66 67 69 70 71 72 74 75 76 77 78 79 80 80 81 81 82 82 82 82 82 82 81 81 81 81 80 81 81 81 81 82 82 82 82 82 83 83 84 85 85 86 87 87 87 88 88 89 89 89 89 90 90 90 90 89 89 89 89 89 89
38 38 37 39 40 40 40 40 41 41 40 43 45 45 44 45 47 47 47 47 48 48 50 50 51 52 54 55 57 59 61 63 64 65 66 67 69 70 71 73 74 75 77 78 80 81 82 83 84 84 85 85 85 86 86 86 86 85 85 85 84 84 84 83 83 83 84 84 84 84 84 84 84 85 85 85 86 86 86 87 87 87 87 88 88 89 89 89 89 89 89 89 89 89 89 89 89
39 38 38 39 39 38 39 40 41 41 42 43 43 42 44 46 47 47 48 49 49 49 50 51 53 55 56 58 59 62 64 66 67 68 69 71 73 74 75 77 78 79 80 81 82 84 85 85 86 87 87 88 88 88 88 88 88 88 87 87 87 86 86 86 86 86 86 86 86 87 87 87 87 88 88 88 88 88 88 89 88 88 88 88 88 88 88 88 88 88 89 89 89 89 89 88 88
40 41 40 39 38 38 39 40 41 42 44 44 41 42 45 47 48 49 50 50 51 51 52 53 55 57 59 61 63 65 67 68 70 71 73 75 76 78 79 80 81 82 82 83 85 86 87 88 89 89 90 91 91 91 90 90 90 90 89 89 89 89 89 89 89 89 89 90 90 90 90 91 91 91 91 91 91 91 91 91 91 91 90 90 90 89 89 89 89 88 88 88 88 88 88 88 88
39 41 41 40 40 40 40 41 41 42 43 44 42 44 46 48 50 51 51 52 52 53 55 57 59 61 63 64 66 68 69 71 72 74 76 78 79 80 82 82 83 84 85 86 87 88 89 90 90 91 91 92 92 92 92 92 92 92 92 92 92 92 93 93 93 94 94 95 95 95 95 96 96 96 95 95 94 94 93 93 93 92 92 92 92 92 91 91 91 90 90 89 89 88 87 87 87
39 40 40 40 40 39 39 41 43 42 44 45 44 45 47 48 51 52 52 54 55 55 58 60 62 63 65 67 69 70 72 74 76 77 78 80 81 82 84 84 85 86 87 88 89 89 90 90 90 91 91 92 92 92 93 93 94 94 95 95 96 96 97 97 98 99 99 99 100 100 100 100 99 99 99 98 97 97 96 96 95 95 94 94 93 93 93 93 92 91 91 90 89 88 87 87 87
39 40 40 40 39 39 40 42 42 43 45 47 47 47 48 49 51 53 54 55 56 57 60 62 64 65 67 68 70 72 74 75 77 78 80 82 83 85 86 87 88 89 90 90 90 91 91 91 91 91 92 93 94 95 96 97 98 98 99 100 101 101 102 102 102 103 103 103 103 103 102 102 102 101 101 101 100 99 99 98 97 97 96 95 95 94 93 92 91 91 90 89 89 88 86 85 85
41 41 39 38 39 40 42 42 41 42 44 47 49 49 49 51 53 55 56 57 58 60 62 64 65 66 68 70 72 73 75 76 78 80 82 84 85 87 88 89 90 90 91 91 91 91 92 92 93 94 95 96 97 98 99 100 101 102 103 104 105 105 106 106 106 106 106 106 106 105 105 105 104 103 102 102 101 100 99 98 97 96 95 94 93 92 91 90 89 88 87 86 86 85 83 83 82
42 42 41 40 40 42 43 43 43 44 46 48 50 51 52 53 54 56 56 58 60 62 64 65 66 68 70 71 73 75 77 79 81 82 84 85 87 88 88 89 89 90 90 91 91 93 94 95 96 98 99 100 101 102 102 103 104 105 106 107 107 108 108 109 109 109 109 109 108 107 107 105 104 102 101 99 98 97 95 94 92 91 91 90 89 88 87 85 84 83 82 81 81 81 80 79 78
Wind_Direction
222 222 222 222 224 229 228 225 223 221 219 221 224 226 228 230 231 235 232 230 234 235 237 242 239 225 214 220 228 230 230 232 233 230 227 226 225 227 230 224 216 214 216 219 223 228 232 236 240 242 244 246 248 250 252 253 254 253 253 254 255 257 258 258 257 257 257 257 256 256 255 255 254 254 254 255 255 256 256 256 257 258 258 258 258 259 260 261 262 263 265 266 267 267 267 266 265
220 219 220 221 222 224 224 220 219 219 219 219 223 226 225 226 228 234 235 230 229 231 233 235 226 208 199 202 212 216 219 224 229 231 231 230 227 228 229 221 214 214 218 223 229 234 238 241 243 244 246 247 248 248 248 248 248 248 249 251 253 256 258 258 259 259 259 258 258 258 257 257 256 256 255 255 255 255 256 257 257 258 258 258 258 258 258 259 260 261 262 264 265 265 266 266 266
216 215 217 219 219 221 220 217 216 218 218 216 222 224 222 224 227 230 232 229 224 224 226 228 220 204 196 197 200 201 201 206 215 223 227 228 226 224 221 215 214 219 224 230 236 241 243 243 244 244 245 244 243 242 243 244 246 248 250 253 256 258 260 262 263 263 262 262 261 260 259 259 258 257 257 256 256 256 256 257 258 258 258 259 259 259 259 259 259 260 261 262 262 263 264 265 266
212 210 212 214 216 218 218 215 214 216 218 216 219 220 218 219 223 228 228 226 222 222 222 224 221 210 205 205 202 203 201 199 203 209 213 216 217 217 216 216 220 227 233 238 243 246 246 244 243 243 242 240 238 239 241 244 248 252 255 258 260 262 263 265 265 265 264 264 263 262 262 261 260 259 259 258 258 257 257 257 257 258 259 259 259 259 260 260 260 260 260 261 261 263 264 264 265
208 206 208 210 209 213 216 215 213 215 217 217 218 217 214 215 220 225 224 223 221 220 223 223 223 217 216 215 212 216 214 208 208 211 212 212 214 217 221 225 231 237 241 244 247 248 246 244 243 241 239 237 236 238 243 249 254 258 260 262 263 264 264 265 265 265 265 265 264 264 263 262 262 261 260 260 259 259 258 257 257 257 258 258 258 259 259 260 261 261 261 261 261 262 263 264 265
204 201 205 209 206 209 214 214 213 213 216 218 220 217 213 214 219 223 221 222 221 220 224 225 224 221 223 222 220 224 220 216 216 216 219 222 226 230 233 235 239 243 244 246 249 248 246 245 244 241 239 237 238 242 249 256 262 265 266 266 266 266 266 266 267 267 267 266 266 265 264 263 263 262 262 261 260 260 260 259 259 258 258 257 257 257 257 258 259 260 261 261 261 261 262 263 264
199 198 201 207 206 208 212 214 212 213 217 220 224 223 220 221 226 226 220 220 222 221 224 228 228 226 227 225 227 230 225 221 222 221 226 231 236 240 241 242 243 244 244 246 247 247 247 246 244 242 239 239 242 249 257 265 270 272 272 270 269 268 268 268 268 267 266 266 265 265 265 265 265 264 264 263 263 263 262 262 261 260 259 259 258 258 258 258 258 258 259 260 261 261 261 262 263
196 196 200 206 208 209 211 213 213 216 221 225 227 227 227 227 232 234 228 226 228 229 229 233 233 231 230 227 229 232 228 224 226 230 235 241 244 244 244 245 244 242 242 243 246 247 248 248 246 243 240 241 246 254 263 271 276 277 275 273 270 269 268 267 267 267 267 266 266 266 266 266 266 267 267 267 266 265 265 265 264 264 263 262 261 261 260 260 260 259 259 259 260 260 261 262 263
196 196 199 207 211 211 212 212 212 218 224 229 230 228 227 228 231 234 234 232 235 237 235 238 239 237 236 233 232 233 231 229 233 240 245 248 248 246 245 244 241 239 240 242 245 247 248 248 247 245 244 246 252 260 267 273 276 277 275 272 270 268 268 267 267 267 267 267 267 267 267 266 266 266 267 268 268 268 267 266 266 266 266 265 265 264 263 262 262 262 261 261 260 261 261 262 263
196 197 201 205 209 212 213 213 213 217 223 230 234 230 228 231 233 234 236 236 237 238 237 239 241 240 240 238 237 239 242 243 245 247 248 248 247 245 243 242 239 239 241 244 246 248 249 249 249 249 250 254 259 264 269 273 275 274 272 270 269 269 269 269 269 268 268 267 267 266 267 267 266 266 266 266 267 268 268 267 267 266 265 265 265 264 264 265 265 264 264 263 262 262 262 262 263
196 201 205 206 209 212 215 216 215 218 223 231 235 233 229 233 237 237 237 237 236 238 238 240 243 243 244 243 242 246 249 249 248 247 247 246 243 241 240 240 241 244 247 249 250 250 252 252 254 256 258 261 264 267 269 272 272 271 269 267 267 268 269 269 269 269 268 267 266 265 264 264 265 265 265 266 266 266 267 267 268 267 266 265 265 265 266 267 267 267 266 266 265 264 265 265 264
200 205 209 210 211 213 215 216 216 219 226 232 235 234 231 232 238 238 237 237 236 240 243 243 246 246 245 244 243 245 247 247 245 243 242 240 237 237 239 242 245 249 252 253 254 255 257 259 260 263 265 266 268 269 270 271 270 268 266 266 266 267 268 268 268 267 267 267 267 266 265 264 264 264 265 265 266 266 266 267 268 268 268 267 266 267 268 268 267 267 268 268 267 267 266 267 267
207 213 214 213 212 211 211 214 216 219 226 233 236 236 235 234 238 241 239 239 239 240 245 246 248 245 242 244 242 239 242 243 239 237 236 237 238 240 242 246 250 252 254 257 259 260 262 264 266 267 269 269 270 270 270 269 267 266 266 266 266 267 267 267 267 267 267 267 268 268 268 267 266 266 266 266 266 266 267 267 268 268 269 269 268 269 269 268 268 268 269 268 268 267 267 266 267
204 213 215 213 212 211 213 215 216 219 224 231 236 236 237 235 238 241 239 240 239 239 244 246 248 243 236 238 238 230 233 238 237 237 241 242 244 246 248 250 252 255 257 260 263 265 267 268 269 269 270 269 269 269 268 268 267 266 266 267 267 267 267 267 267 267 267 268 268 269 269 270 269 269 268 268 268 268 268 268 268 268 269 269 269 269 269 269 269 270 269 268 267 267 266 266 266
189 198 207 212 214 213 218 222 222 224 226 230 234 234 236 235 236 238 238 239 239 241 246 247 248 245 237 237 238 230 234 244 246 245 246 248 249 251 252 254 257 259 261 264 266 268 269 269 269 269 269 268 268 267 266 266 266 266 266 267 267 268 268 268 268 268 269 270 270 270 270 271 271 272 271 271 270 270 270 270 270 270 270 269 269 269 269 269 269 270 269 268 267 267 268 268 269
195 186 194 201 210 209 212 221 222 225 228 232 234 234 234 234 234 236 238 241 243 244 247 249 250 251 249 250 252 251 252 254 252 251 252 252 254 255 256 257 259 262 264 265 267 268 269 269 270 270 269 268 267 267 267 267 268 268 268 268 268 269 270 271 271 272 272 272 272 271 271 271 272 273 273 273 273 273 272 272 272 272 271 271 270 270 270 269 269 269 269 268 268 268 269 270 271
210 209 191 184 195 198 199 211 213 220 226 230 234 235 235 233 233 237 241 244 247 247 248 249 250 253 256 258 259 259 259 256 252 252 254 255 257 258 259 260 261 263 264 266 267 267 268 269 269 269 269 268 268 267 268 269 269 270 270 271 271 271 272 273 274 274 274 274 274 273 273 273 273 273 274 274 274 275 274 274 273 273 272 272 271 271 270 270 269 269 269 269 269 269 270 271 273
218 219 206 186 189 195 200 207 209 216 223 228 232 238 239 236 235 240 245 246 248 250 249 249 251 253 255 256 257 256 257 257 253 251 252 255 257 258 259 261 262 263 264 265 266 268 269 269 269 269 268 268 268 269 269 269 270 271 272 273 274 274 275 275 275 275 275 275 275 275 275 274 274 274 274 274 275 275 275 275 274 274 273 273 272 271 271 271 270 270 269 269 269 270 271 272 273
221 221 216 208 202 201 206 209 212 217 223 229 232 238 242 241 239 240 245 246 247 250 250 249 249 251 253 255 255 254 255 256 255 252 252 253 255 258 260 261 263 263 264 265 266 269 270 269 269 269 269 268 268 269 269 270 271 272 273 275 276 277 277 277 277 276 276 276 276 276 276 275 275 275 275 275 274 274 274 275 275 274 274 273 273 273 272 272 272 271 271 270 269 270 271 271 272
221 222 222 223 220 214 214 214 217 219 225 233 232 235 240 241 238 237 243 247 247 249 250 249 250 251 253 256 256 253 252 253 254 254 254 256 257 260 262 264 264 265 267 269 267 267 270 269 267 267 267 268 269 270 271 272 273 274 275 276 277 278 278 278 278 278 277 277 276 276 276 276 276 276 276 275 274 274 274 274 274 274 274 274 274 274 274 273 273 273 272 271 270 270 270 270 271
219 223 224 228 228 225 226 223 222 223 230 239 234 232 239 239 236 236 240 245 247 248 250 251 252 251 252 255 256 255 252 253 257 259 259 260 261 262 263 265 267 266 267 270 268 266 267 267 267 267 267 268 269 271 272 274 275 276 277 278 278 278 278 278 278 279 279 279 279 279 279 279 278 278 277 276 275 274 274 274 274 273 273 274 274 274 274 273 273 273 272 272 272 271 271 271 271
211 218 222 229 231 231 236 236 234 240 244 247 244 240 245 247 244 243 241 244 248 251 254 255 253 253 255 256 258 259 256 253 254 259 261 261 262 264 266 266 267 267 266 269 269 268 266 265 266 267 268 269 270 272 273 273 274 274 275 275 276 276 276 277 277 278 279 280 281 281 282 282 282 281 280 279 278 276 275 274 274 274 274 273 273 273 272 272 272 272 272 272 272 273 272 272 272
202 207 213 222 228 232 240 244 244 249 250 251 253 251 250 252 251 250 248 248 250 254 258 259 258 257 257 258 259 260 260 258 255 256 259 262 265 267 268 268 268 269 268 269 268 267 266 266 266 266 267 268 269 270 270 270 270 270 270 270 271 272 273 274 275 276 277 278 278 279 280 281 281 281 281 281 281 279 278 276 274 274 273 272 272 271 271 271 271 271 271 271 272 272 272 272 273
204 206 207 210 216 224 236 241 240 245 250 250 252 252 252 252 251 251 250 250 252 254 256 257 259 258 256 256 258 260 260 260 259 259 259 262 266 268 268 269 269 270 269 268 267 265 265 266 267 267 267 266 266 267 267 268 269 269 269 269 269 269 270 271 272 273 274 275 276 277 277 278 278 278 279 279 280 280 280 279 277 275 273 272 271 271 271 270 270 270 269 269 269 270 271 272 272
215 215 212 210 213 218 227 233 235 239 244 246 246 246 247 249 248 249 250 251 253 254 254 255 256 257 257 256 257 258 260 261 262 263 262 263 268 270 270 270 269 269 268 267 265 264 263 264 265 266 266 267 267 267 267 268 268 269 269 270 270 270 270 270 271 272 272 273 274 274 275 275 276 276 276 276 276 277 279 279 279 278 275 273 271 271 271 270 269 268 268 267 267 269 270 271 272
221 225 223 221 221 223 225 230 234 236 238 241 243 244 246 248 248 250 252 252 254 256 257 257 257 258 259 259 258 259 260 261 263 266 267 267 270 272 272 272 271 269 266 264 263 263 263 264 265 266 267 268 269 269 270 270 270 271 271 271 271 271 271 271 271 271 272 273 273 274 274 274 274 274 275 275 275 275 276 276 277 278 277 275 273 272 271 270 268 268 267 267 267 269 270 271 272
226 228 229 229 229 230 232 235 237 238 239 241 245 250 255 255 252 253 254 255 259 262 262 262 262 262 262 263 263 263 263 262 264 269 270 270 271 272 272 271 269 267 265 264 263 264 265 266 267 268 268 269 269 270 270 271 271 272 272 272 272 272 272 272 272 272 272 273 274 274 275 275 274 274 274 274 274 274 274 275 275 276 276 276 275 272 270 269 268 268 269 269 269 270 271 272 273
249 249 247 243 239 237 236 238 240 242 242 243 248 255 258 256 253 254 256 257 260 262 265 266 267 267 266 266 265 265 265 264 265 268 269 270 270 270 269 268 267 265 264 264 264 265 266 266 267 267 268 268 269 270 270 270 271 271 271 272 272 272 273 273 273 273 273 274 274 275 275 275 274 274 274 273 273 273 273 273 273 274 274 274 274 273 272 270 270 270 270 270 271 271 272 273 273
263 266 265 265 261 256 252 250 251 251 249 250 252 254 257 254 253 257 259 262 263 261 262 264 267 268 268 268 266 265 265 265 265 266 266 266 265 264 264 264 265 265 265 265 265 265 266 266 266 266 267 267 268 269 269 270 270 270 270 271 271 271 272 273 273 273 273 274 274 274 274 273 273 273 273 272 272 272 272 272 271 271 271 271 271 272 272 271 271 271 271 271 272 272 272 273 273
263 263 263 264 265 264 265 267 267 266 267 267 262 261 263 261 258 261 265 268 269 268 266 265 265 266 266 267 267 267 267 266 266 266 266 265 263 262 262 263 264 265 265 265 265 265 266 267 267 267 268 268 269 269 269 269 269 269 270 270 270 270 271 271 271 271 272 272 272 272 272 272 272 272 271 271 271 271 271 271 270 270 270 270 269 269 269 270 270 270 271 271 271 272 272 272 272
259 259 257 258 263 266 264 265 268 269 270 270 268 266 266 267 266 265 264 264 267 269 271 270 268 267 266 265 266 267 268 268 268 269 269 268 267 265 264 265 265 265 266 266 266 266 267 268 269 269 269 270 270 270 270 270 270 270 271 271 271 270 270 270 270 271 271 271 271 272 272 272 272 272 272 272 271 271 271 270 270 270 270 270 270 269 269 269 270 270 269 269 270 270 271 271 271
256 256 257 258 262 266 265 263 266 268 267 266 268 266 266 269 270 267 264 263 264 266 268 270 270 269 268 266 266 267 268 269 269 269 269 270 271 270 269 268 268 267 268 268 268 269 270 270 271 271 271 271 271 271 271 271 271 271 272 272 271 271 271 271 271 271 272 272 272 272 272 273 273 273 273 272 272 272 271 271 271 271 271 271 270 270 270 270 270 269 269 269 269 269 269 270 270
256 256 260 264 265 267 267 263 260 263 265 266 266 266 267 270 271 270 269 268 266 265 266 268 269 269 270 269 269 269 269 270 269 269 269 269 269 270 271 271 271 271 271 271 271 272 272 273 273 273 273 273 273 273 272 272 273 273 273 273 273 273 272 272 272 272 273 273 273 273 273 273 273 272 272 272 272 272 271 271 271 271 271 270 270 270 270 269 269 269 269 268 268 268 268 268 269
260 260 260 263 265 265 265 262 257 256 259 263 265 266 267 269 271 273 273 271 269 267 266 266 266 267 269 270 271 271 271 271 270 270 269 269 268 268 269 270 271 272 272 272 272 273 273 273 273 273 273 273 273 273 273 273 273 274 274 274 274 274 274 274 273 273 273 273 273 273 273 273 272 272 272 272 272 271 271 270 270 269 269 269 269 268 268 268 268 267 267 267 267 267 267 267 267
264 264 260 257 258 261 264 263 260 257 257 259 262 264 264 266 269 271 272 270 270 269 268 267 266 266 268 270 270 271 271 271 271 271 271 271 271 271 271 271 271 272 272 272 273 273 273 273 273 273 274 274 273 273 274 274 274 274 274 274 275 275 275 274 274 274 273 273 273 272 272 272 272 271 271 271 272 272 271 271 270 270 269 268 268 267 267 266 266 266 266 266 266 266 265 265 265
265 265 264 261 260 261 264 265 265 266 265 263 263 264 265 265 266 269 269 269 269 270 270 269 269 270 270 271 271 270 270 271 272 272 273 273 273 273 273 273 273 273 273 273 273 273 274 274 274 274 274 274 274 274 274 274 274 274 274 274 274 275 274 274 274 274 273 273 272 272 272 271 271 271 271 271 271 271 272 272 271 271 270 269 268 268 267 267 266 266 266 265 265 265 265 265 265
266 266 267 267 266 265 266 269 270 271 271 271 271 270 269 267 266 266 268 269 269 270 271 271 272 272 271 271 272 272 272 272 273 273 273 273 274 274 274 274 274 274 274 274 275 275 275 275 275 275 275 275 275 274 274 274 274 274 274 274 274 274 274 274 273 273 273 273 272 272 272 271 271 271 270 270 270 270 270 271 271 271 270 270 269 268 268 267 267 267 267 266 266 266 266 266 265
271 269 269 270 271 270 271 273 276 276 276 277 277 275 274 273 270 267 266 267 268 269 271 272 272 272 272 272 272 273 273 273 273 273 274 274 274 274 274 274 274 275 275 275 275 275 275 275 275 275 275 274 274 274 274 274 273 273 273 273 273 273 273 273 272 272 272 272 272 271 271 271 271 271 271 270 270 270 270 270 270 270 269 269 269 268 268 268 268 268 268 268 267 267 267 266 266
276 275 275 275 276 277 277 278 280 280 280 281 280 279 280 280 278 273 270 269 269 270 269 270 272 272 272 272 273 273 274 274 274 274 274 274 275 275 275 275 275 275 275 275 275 275 275 274 274 274 274 274 274 273 273 272 272 272 272 272 271 271 271 271 271 271 271 271 271 270 270 270 270 270 270 270 270 270 270 270 270 269 269 268 268 268 268 268 268 268 268 268 268 268 268 268 267
278 280 280 281 281 281 281 281 282 283 283 282 281 283 283 282 280 278 276 274 273 273 273 273 273 272 272 273 273 274 274 275 275 275 276 276 276 276 276 276 275 275 275 275 275 275 275 275 274 274 274 274 274 273 273 272 272 272 272 271 271 270 270 270 270 270 270 270 270 270 270 269 269 269 269 269 269 269 269 269 269 269 269 268 268 267 267 267 267 267 267 267 267 268 268 268 268
281 281 282 284 284 283 282 282 283 284 284 283 283 284 283 282 281 281 279 276 274 275 277 277 276 275 275 275 275 275 275 275 275 276 276 276 276 276 275 275 275 274 274 274 275 275 275 276 276 275 275 275 274 274 274 273 273 273 272 272 272 271 271 270 270 270 270 269 269 269 269 269 269 269 269 269 269 269 269 269 269 268 268 268 268 268 267 267 266 266 266 266 266 266 266 267 268
282 282 284 285 284 283 284 284 285 284 284 284 284 285 284 284 284 283 281 280 279 278 277 277 277 278 278 278 278 277 276 274 273 273 273 274 274 274 274 274 274 274 274 274 274 274 274 274 274 274 275 275 275 275 275 274 274 274 273 273 273 273 273 272 272 272 271 271 271 270 270 269 269 269 268 268 268 268 268 268 268 268 268 268 268 268 268 267 267 267 266 266 265 265 265 265 266
282 284 286 285 284 284 285 285 285 285 285 285 285 286 286 285 285 284 284 285 284 282 280 280 280 280 281 280 279 278 277 276 275 274 274 274 274 274 275 275 275 275 275 275 275 275 275 275 275 275 275 275 276 276 276 276 276 276 275 275 274 274 273 273 273 273 273 272 272 271 271 270 270 269 269 269 268 268 268 268 268 268 267 267 267 267 267 267 267 267 267 266 266 265 265 265 264
285 287 287 286 285 286 285 285 285 284 284 285 286 287 286 285 285 285 286 287 287 286 285 285 286 286 285 284 282 280 280 280 280 280 279 278 277 277 277 277 277 278 278 278 278 278 278 278 278 278 278 278 278 278 278 278 277 277 277 276 276 275 275 274 274 273 273 273 272 272 271 271 271 270 270 269 269 268 268 268 267 267 267 267 267 267 266 266 266 266 266 266 266 266 266 265 265
288 288 287 287 286 286 285 285 284 284 285 286 287 286 285 285 286 286 288 287 287 287 287 289 291 291 288 287 287 287 287 285 285 284 283 282 281 280 280 280 280 281 281 281 281 281 281 280 280 280 280 280 280 279 279 279 278 278 278 278 277 277 276 276 275 274 274 273 273 273 272 272 271 271 271 270 270 269 269 268 268 267 267 267 266 266 266 266 266 266 266 266 266 266 266 266 265
287 287 287 287 286 286 285 285 285 286 287 287 286 285 286 287 287 287 288 288 287 288 289 290 292 292 292 292 292 292 291 289 288 287 286 285 284 284 283 283 283 283 283 282 282 283 283 283 282 282 282 281 281 281 280 280 280 279 279 278 278 277 277 276 276 275 275 274 274 274 273 273 273 272 272 271 271 270 270 269 269 268 268 267 267 267 266 266 266 265 265 265 265 265 265 265 265
287 287 286 286 285 285 286 286 287 288 288 288 287 286 287 287 287 288 289 288 288 289 290 291 292 292 294 294 294 294 293 292 291 290 289 288 288 287 287 287 287 287 286 286 285 285 285 285 285 284 284 283 283 283 282 282 281 281 280 279 279 278 277 277 276 276 275 275 274 274 274 274 273 273 273 273 272 272 271 271 270 270 269 268 268 267 267 267 266 266 266 265 265 265 265 265 265
288 287 286 287 286 286 287 287 287 287 286 286 287 286 287 288 289 290 289 289 290 290 290 292 294 294 295 294 294 294 294 294 293 292 291 291 291 292 292 292 291 291 290 290 289 289 288 288 287 287 286 285 285 285 284 284 283 283 282 282 281 281 280 280 279 279 278 277 277 276 276 275 275 274 274 273 273 273 273 272 272 271 271 270 270 269 268 268 267 267 267 266 266 266 266 266 266
288 287 287 288 287 287 288 288 289 288 286 287 288 287 289 291 291 290 290 291 292 292 292 293 295 296 296 295 295 295 295 294 293 292 293 293 294 294 294 293 293 293 293 292 292 292 291 290 290 289 288 288 288 287 287 286 286 285 284 284 284 283 283 282 282 282 281 281 280 280 279 279 278 277 277 276 275 275 274 274 273 273 272 272 271 271 270 270 269 269 268 268 267 267 266 266 266
287 287 288 289 287 287 288 288 288 287 288 289 288 288 290 292 291 291 291 291 291 293 294 294 295 295 295 295 296 296 295 294 293 294 294 294 294 294 294 294 294 294 294 294 294 293 293 292 292 292 291 291 290 290 289 288 288 287 286 285 284 284 283 283 282 282 282 281 281 281 281 280 280 280 280 279 278 277 276 276 275 274 274 273 273 272 272 271 271 270 270 269 269 268 268 267 267
288 289 289 288 287 287 288 287 285 285 285 286 287 288 288 288 289 289 290 290 291 292 293 295 295 294 295 295 296 295 295 295 295 295 295 295 294 294 294 294 295 295 295 295 295 295 295 295 295 295 294 293 293 292 291 290 290 289 288 287 286 285 285 284 283 283 282 282 281 281 281 281 281 281 281 280 280 279 278 277 276 276 275 274 273 273 273 272 272 271 271 270 270 269 268 268 268
290 290 288 287 287 287 286 285 284 285 284 284 286 287 286 286 287 288 288 289 291 292 293 294 295 295 296 296 295 295 295 295 296 296 296 296 296 296 296 296 296 297 297 297 297 297 297 296 296 295 295 294 293 293 292 292 291 290 290 289 288 287 287 286 286 285 284 284 284 283 283 283 282 282 282 282 281 280 280 279 278 277 276 275 274 273 273 272 272 271 271 271 270 270 269 269 268
291 291 289 288 287 284 283 283 284 283 283 285 286 286 285 286 287 287 289 291 293 294 294 295 296 296 296 296 295 295 295 296 297 297 297 297 297 297 298 298 298 298 298 297 297 297 296 296 295 295 295 294 294 293 293 292 292 291 290 290 289 288 288 287 287 287 286 286 286 285 285 285 284 284 283 283 282 281 281 280 279 278 277 276 275 274 274 273 272 271 271 270 270 270 269 269 268
289 289 290 289 286 285 284 284 283 283 284 285 286 286 287 288 288 289 291 293 294 296 297 298 298 297 297 297 297 297 297 297 298 298 298 298 298 299 299 299 298 298 297 297 296 296 295 295 295 295 295 294 294 293 293 292 292 291 291 290 290 290 289 289 288 288 288 287 287 287 286 286 285 285 284 284 283 282 282 281 280 279 278 277 276 276 275 274 273 273 272 271 270 269 269 268 268
288 288 287 286 285 286 285 284 284 285 285 286 285 286 288 289 291 292 293 294 296 298 299 298 297 297 297 298 298 298 298 298 298 298 298 298 298 298 298 298 297 297 297 296 296 296 296 295 295 294 294 294 293 293 292 292 292 291 291 291 290 290 290 290 289 289 289 289 288 288 288 287 287 286 286 285 284 284 283 282 281 280 279 278 277 277 276 275 274 273 273 272 271 269 268 268 267
286 285 285 284 285 285 285 285 287 287 287 287 286 287 289 291 293 294 294 296 298 298 298 297 297 297 297 297 297 297 297 297 297 297 297 297 297 297 297 297 297 297 297 297 297 296 296 295 295 294 294 294 293 293 292 292 292 292 291 291 291 290 290 290 290 290 289 289 289 289 288 288 288 287 287 286 286 285 284 283 282 281 280 279 278 277 276 275 274 273 272 271 270 269 268 267 266
285 283 283 283 283 283 283 285 286 287 287 288 288 288 289 292 293 295 297 298 298 296 295 295 296 296 296 296 296 296 296 296 296 296 296 297 297 297 297 297 297 297 297 297 296 296 296 295 295 294 294 294 293 293 293 293 292 292 292 292 292 291 291 291 291 290 290 290 290 290 290 289 289 288 288 287 286 285 284 283 282 281 280 278 277 276 274 273 271 270 269 268 267 267 266 265 264
283 283 284 284 284 284 285 285 286 287 289 290 290 290 290 291 293 296 297 297 295 294 294 295 295 296 296 296 296 296 296 296 296 296 297 297 297 297 297 297 296 296 296 295 295 295 295 295 294 294 294 294 294 293 293 293 293 292 292 292 292 292 292 291 291 291 291 291 291 291 290 290 290 289 288 287 286 285 284 282 281 279 278 276 274 273 271 269 268 266 265 264 264 263 263 262 261